{"data":{"norad_id":53052,"epoch":"2026-09-19T22:52:11.772192Z","epoch_age_seconds":116695,"freshness":"FRESH","line1":"1 53052U 22077K   26262.95291403  .00001107  00000+0  36614-4 0  9996","line2":"2 53052  97.2836  77.7557 0001440  98.5295 261.6111 15.33436092230208","mean_motion":15.33436092,"eccentricity":0.000144,"inclination_deg":97.2836,"raan_deg":77.7557,"arg_perigee_deg":98.5295,"mean_anomaly_deg":261.6111,"bstar":3.6614e-5,"rev_number":23020,"period_min":93.906750174496,"perigee_km":464.58418478541,"apogee_km":466.55517230883,"semimajor_km":6843.7066785471,"source":"CELESTRAK","updated_at":"2026-09-20T09:00:40.151620Z"}}